TimeHST,TemperatureF,Dew PointF,Humidity,Sea Level PressureIn,VisibilityMPH,Wind Direction,Wind SpeedMPH,Gust SpeedMPH,PrecipitationIn,Events,Conditions,WindDirDegrees,DateUTC
12:56 AM,63.0,57.9,84,30.01,10.0,East,5.8,-,N/A,,Clear,90,2013-03-20 10:56:00
1:56 AM,61.0,57.9,90,29.99,10.0,ENE,6.9,-,N/A,,Clear,70,2013-03-20 11:56:00
2:56 AM,59.9,55.9,87,29.98,10.0,ENE,6.9,-,N/A,,Clear,70,2013-03-20 12:56:00
3:56 AM,61.9,54.9,78,29.98,10.0,ESE,6.9,-,N/A,,Clear,110,2013-03-20 13:56:00
4:56 AM,61.0,55.9,83,29.99,10.0,East,5.8,-,N/A,,Clear,90,2013-03-20 14:56:00
5:56 AM,59.9,55.9,87,30.01,10.0,ENE,6.9,-,N/A,,Clear,70,2013-03-20 15:56:00
6:56 AM,61.0,54.9,80,30.03,10.0,East,6.9,-,N/A,,Clear,80,2013-03-20 16:56:00
7:56 AM,68.9,59.9,73,30.05,10.0,East,4.6,-,N/A,,Scattered Clouds,90,2013-03-20 17:56:00
8:56 AM,72.9,59.9,64,30.06,10.0,SE,5.8,-,N/A,,Partly Cloudy,140,2013-03-20 18:56:00
9:56 AM,77.9,56.8,48,30.06,10.0,SSE,8.1,-,N/A,,Scattered Clouds,150,2013-03-20 19:56:00
10:56 AM,80.6,57.2,45,30.11,10.0,South,10.4,-,N/A,,Partly Cloudy,190,2013-03-20 20:56:00
11:56 AM,79.9,54.0,41,30.04,10.0,SSE,9.2,-,N/A,,Partly Cloudy,160,2013-03-20 21:56:00
12:56 PM,79.0,55.9,45,30.03,10.0,South,6.9,-,N/A,,Scattered Clouds,170,2013-03-20 22:56:00
1:56 PM,82.4,55.4,39,30.06,10.0,South,9.2,-,N/A,,Partly Cloudy,170,2013-03-20 23:56:00
2:26 PM,75.2,64.4,69,30.06,10.0,SSE,11.5,-,N/A,,Mostly Cloudy,150,2013-03-21 00:26:00
2:46 PM,73.4,66.2,78,30.06,10.0,SSE,13.8,-,N/A,,Mostly Cloudy,160,2013-03-21 00:46:00
2:56 PM,72.9,65.8,79,30.01,10.0,SSE,13.8,-,N/A,,Overcast,160,2013-03-21 00:56:00
3:36 PM,73.4,64.4,73,30.06,10.0,South,15.0,20.7,N/A,,Overcast,180,2013-03-21 01:36:00
3:56 PM,70.9,63.0,76,30.01,10.0,SSE,11.5,-,N/A,,Mostly Cloudy,150,2013-03-21 01:56:00
4:56 PM,72.9,59.9,64,30.02,10.0,SE,8.1,-,N/A,,Overcast,130,2013-03-21 02:56:00
5:56 PM,72.9,59.9,64,30.04,10.0,SE,6.9,-,N/A,,Clear,130,2013-03-21 03:56:00
6:56 PM,68.0,61.9,81,30.05,10.0,ESE,8.1,-,N/A,,Clear,120,2013-03-21 04:56:00
7:56 PM,66.9,59.9,78,30.06,10.0,East,9.2,-,N/A,,Clear,100,2013-03-21 05:56:00
8:56 PM,66.9,59.9,78,30.06,10.0,East,8.1,-,N/A,,Clear,100,2013-03-21 06:56:00
9:56 PM,68.9,61.0,76,30.06,10.0,East,8.1,-,N/A,,Clear,100,2013-03-21 07:56:00
10:56 PM,68.9,61.0,76,30.06,10.0,East,8.1,-,N/A,,Partly Cloudy,80,2013-03-21 08:56:00
11:56 PM,68.9,61.0,76,30.05,10.0,East,4.6,-,N/A,,Scattered Clouds,80,2013-03-21 09:56:00